OSTR-WX Weather Reports


time (UTC)temp
C
wind
direction
speed
KPH
gust
KPH
rain 1hr
cm
rain 24hr
cm
rain mn
cm
humidity
%
barometer
mb
20260508032907 11 0.0 0.0 0.00 0.00 0.00 100 1016.5
20260508031315 11 0.0 0.0 0.00 0.00 0.00 100 1016.6
20260508031310 11 0.0 0.0 0.00 0.00 0.00 100 1016.6
20260508025713 11 0.0 0.0 0.00 0.00 0.00 100 1016.3
20260508024116 11 0.0 0.0 0.00 0.00 0.00 100 1016.3
20260508022519 11 0.0 0.0 0.00 0.00 0.00 100 1016.5
20260508020922 11 0.0 0.0 0.00 0.00 0.00 100 1016.5
20260508015325 11 0.0 0.0 0.00 0.00 0.00 100 1016.7
20260508013728 12 0.0 0.0 0.00 0.00 0.00 100 1016.6
20260508012131 12 0.0 0.0 0.00 0.00 0.00 100 1016.5
20260508010534 12 0.0 0.0 0.00 0.00 0.00 100 1016.2
20260508004938 12 0.0 0.0 0.00 0.00 0.00 100 1016.0
20260508003341 12 0.0 0.0 0.00 0.00 0.00 100 1016.0
20260508001745 13 0.0 0.0 0.00 0.00 0.00 100 1015.9
20260508000147 13 0.0 0.0 0.00 0.00 0.00 100 1015.8
20260507234555 13 0.0 0.0 0.00 0.00 0.00 100 1016.0
20260507234550 13 0.0 0.0 0.00 0.00 0.00 100 1016.0
20260507232956 12 0.0 0.0 0.00 0.00 0.00 100 1016.1
20260507232952 12 0.0 0.0 0.00 0.00 0.00 100 1016.1
20260507231359 12 0.0 0.0 0.00 0.00 0.00 100 1016.2
20260507231355 12 0.0 0.0 0.00 0.00 0.00 100 1016.2
20260507225758 12 0.0 0.0 0.00 0.00 0.00 100 1016.3
20260507224201 12 0.0 0.0 0.00 0.00 0.00 100 1016.2
20260507222603 12 0.0 0.0 0.00 0.00 0.00 100 1016.0
20260507221007 12 0.0 0.0 0.00 0.00 0.00 100 1016.1
20260507215411 12 0.0 0.0 0.00 0.00 0.00 100 1016.0
20260507213816 12 0.0 0.0 0.00 0.00 0.00 100 1016.0
20260507213812 12 0.0 0.0 0.00 0.00 0.00 100 1016.0
20260507212216 12 0.0 0.0 0.00 0.00 0.00 100 1015.5
20260507210623 12 0.0 0.0 0.00 0.00 0.00 100 1015.3
20260507210619 12 0.0 0.0 0.00 0.00 0.00 100 1015.3
20260507205022 13 0.0 0.0 0.00 0.00 0.00 100 1015.2
20260507203428 13 0.0 0.0 0.00 0.00 0.00 100 1015.3
20260507203424 13 0.0 0.0 0.00 0.00 0.00 100 1015.3
20260507201828 12 0.0 0.0 0.00 0.00 0.00 100 1015.4
20260507200235 12 0.0 0.0 0.00 0.00 0.00 100 1015.1
20260507200231 12 0.0 0.0 0.00 0.00 0.00 100 1015.1
20260507194633 12 0.0 0.0 0.00 0.00 0.00 100 1014.7
20260507193036 12 0.0 0.0 0.00 0.00 0.00 99 1014.7
20260507191439 13 0.0 0.0 0.00 0.00 0.00 95 1014.6
20260507185847 14 0.0 0.0 0.00 0.00 0.00 90 1014.5
20260507185842 14 0.0 0.0 0.00 0.00 0.00 90 1014.5
20260507184246 15 0.0 0.0 0.00 0.00 0.00 84 1014.1
20260507182653 15 0.0 0.0 0.00 0.00 0.00 85 1013.5
20260507182649 15 0.0 0.0 0.00 0.00 0.00 85 1013.5
20260507181051 15 0.0 0.0 0.00 0.00 0.00 82 1013.0
20260507175459 16 0.0 0.0 0.00 0.00 0.00 81 1012.8
20260507175455 16 0.0 0.0 0.00 0.00 0.00 81 1012.8
20260507173857 16 0.0 0.0 0.00 0.00 0.00 82 1012.3
20260507172300 16 0.0 0.0 0.00 0.00 0.00 81 1012.0
20260507170704 17 0.0 0.0 0.00 0.00 0.00 81 1011.7
20260507165113 17 0.0 0.0 0.00 0.00 0.00 80 1011.5
20260507165107 17 0.0 0.0 0.00 0.00 0.00 80 1011.5
20260507163510 17 0.0 0.0 0.00 0.00 0.00 79 1011.3
20260507161913 18 0.0 0.0 0.00 0.00 0.00 80 1011.1
20260507160321 18 0.0 0.0 0.00 0.00 0.00 82 1011.1
20260507160317 18 0.0 0.0 0.00 0.00 0.00 82 1011.1
20260507154719 18 0.0 0.0 0.00 0.00 0.00 83 1011.1
20260507153122 18 0.0 0.0 0.00 0.00 0.00 81 1011.2
20260507151525 18 0.0 0.0 0.00 0.00 0.00 78 1011.2
20260507145929 18 0.0 0.0 0.00 0.00 0.00 86 1011.1
20260507144332 18 0.0 0.0 0.00 0.00 0.00 87 1011.2
20260507142734 18 0.0 0.0 0.00 0.00 0.00 83 1011.3
20260507141144 18 0.0 0.0 0.00 0.00 0.00 83 1011.3
20260507141137 18 0.0 0.0 0.00 0.00 0.00 83 1011.3
20260507135540 18 0.0 0.0 0.00 0.00 0.00 83 1011.2
20260507133943 20 0.0 0.0 0.00 0.00 0.00 67 1011.2
20260507132346 21 0.0 0.0 0.00 0.00 0.00 60 1010.9
20260507130749 21 0.0 0.0 0.00 0.00 0.00 61 1010.8
20260507125152 22 0.0 0.0 0.00 0.00 0.00 60 1010.9
20260507123555 21 0.0 0.0 0.00 0.00 0.00 62 1010.9
20260507121959 21 0.0 0.0 0.00 0.00 0.00 61 1011.0
20260507120401 22 0.0 0.0 0.00 0.00 0.00 59 1010.9
20260507114805 22 0.0 0.0 0.00 0.00 0.00 61 1010.9
20260507113207 22 0.0 0.0 0.00 0.00 0.00 62 1011.0
20260507111610 21 0.0 0.0 0.00 0.00 0.00 62 1011.1
20260507110019 21 0.0 0.0 0.00 0.00 0.00 65 1011.2
20260507110014 21 0.0 0.0 0.00 0.00 0.00 65 1011.2
20260507104417 21 0.0 0.0 0.00 0.00 0.00 69 1011.1
20260507102819 21 0.0 0.0 0.00 0.00 0.00 67 1011.1
20260507101222 21 0.0 0.0 0.00 0.00 0.00 67 1010.9
20260507095625 21 0.0 0.0 0.00 0.00 0.00 68 1010.8
20260507094029 21 0.0 0.0 0.00 0.00 0.00 69 1010.7
20260507092818 20 0.0 0.0 0.00 0.00 0.00 71 1010.8
20260507092431 20 0.0 0.0 0.00 0.00 0.00 71 1010.8
20260507090839 19 0.0 0.0 0.00 0.00 0.00 72 1010.7
20260507090834 19 0.0 0.0 0.00 0.00 0.00 72 1010.7
20260507085237 20 0.0 0.0 0.00 0.00 0.00 73 1010.4
20260507083647 20 0.0 0.0 0.00 0.00 0.00 72 1010.1
20260507083642 20 0.0 0.0 0.00 0.00 0.00 72 1010.1
20260507082043 19 0.0 0.0 0.00 0.00 0.00 73 1010.0
20260507080446 19 0.0 0.0 0.00 0.00 0.00 74 1010.1
20260507074849 18 0.0 0.0 0.00 0.00 0.00 74 1009.9
20260507073252 18 0.0 0.0 0.00 0.00 0.00 78 1009.8
20260507071655 17 0.0 0.0 0.00 0.00 0.00 78 1009.7
20260507070104 17 0.0 0.0 0.00 0.00 0.00 81 1009.8
20260507070058 17 0.0 0.0 0.00 0.00 0.00 81 1009.8
20260507064501 17 0.0 0.0 0.00 0.00 0.00 82 1009.9
20260507062904 16 0.0 0.0 0.00 0.00 0.00 83 1009.9
20260507061307 16 0.0 0.0 0.00 0.00 0.00 83 1009.7
20260507055710 16 0.0 0.0 0.00 0.00 0.00 86 1009.5
20260507054117 16 0.0 0.0 0.00 0.00 0.00 86 1009.2
20260507054113 16 0.0 0.0 0.00 0.00 0.00 86 1009.2
20260507052516 16 0.0 0.0 0.00 0.00 0.00 85 1009.1
20260507050919 16 0.0 0.0 0.00 0.00 0.00 86 1008.9
20260507045322 16 0.0 0.0 0.00 0.00 0.00 86 1008.8
20260507043731 16 0.0 0.0 0.00 0.00 0.00 87 1008.5
20260507043725 16 0.0 0.0 0.00 0.00 0.00 87 1008.5
20260507042129 16 0.0 0.0 0.00 0.00 0.00 89 1008.6
20260507040531 16 0.0 0.0 0.00 0.00 0.00 90 1008.3
20260507034938 15 0.0 0.0 0.00 0.00 0.00 91 1008.3
20260507034933 15 0.0 0.0 0.00 0.00 0.00 91 1008.3